#timestamp,LO_Frequency,Hit,StdDev 
1615417215.8,286046981.9,N
1615417235.7,286046976.3,N
1615417255.5,286046970.0,N
1615417275.4,286046971.8,N
1615417295.2,286046969.9,N
1615417315.0,286046970.0,N
1615417315.9,286046970.0,N
1615417335.8,286046968.3,N
1615417355.6,286046965.0,N
1615417375.5,286046961.1,N
1615417395.3,286046958.6,Y
1615417415.1,286046984.7,P
1615417435.9,286046986.5,P
1615417455.7,286046990.0,P
1615417475.5,286046989.0,N
1615417495.4,286046992.5,N
1615417515.2,286046994.8,N
1615417535.1,286046993.5,N
1615417536.0,286046993.5,N
1615417555.8,286046993.1,N
1615417575.6,286046980.8,Y
1615417595.5,286046986.5,P
1615417615.3,286046981.0,P
1615417635.1,286046976.9,P
1615417655.9,286046983.1,Y
1615417675.7,286046998.1,P
1615417695.6,286046995.7,N
1615417715.4,286046993.7,N
1615417735.2,286046993.9,N
1615417755.1,286046987.2,N
1615417756.0,286046987.2,N
1615417775.8,286046982.2,Y
1615417795.7,286046983.9,P
1615417815.5,286046982.8,P
1615417835.3,286046985.9,P
1615417855.2,286046990.9,N
1615417875.0,286046990.5,N
1615417875.9,286046990.5,N
1615417895.8,286046996.2,N
1615417915.6,286047002.0,N
1615417935.4,286047005.9,N
1615417955.3,286047004.0,N
1615417975.1,286047006.4,N
1615417995.8,286047004.2,N
1615418015.7,286047003.6,N
1615418035.5,286047007.0,N
1615418055.4,286047005.2,N
1615418075.2,286046994.1,N
1615418095.0,286046993.7,N
1615418095.9,286046993.7,N
1615418115.8,286046992.4,N
1615418135.6,286046996.8,N
1615418155.5,286046996.2,N
1615418175.3,286046995.9,N
1615418195.1,286046992.6,N
1615418215.9,286046992.4,N
1615418235.7,286046987.6,N
1615418255.5,286046989.1,N
1615418275.4,286046988.9,N
1615418295.2,286046991.7,N
1615418315.1,286046995.7,N
1615418316.0,286046995.7,N
1615418335.8,286046990.6,N
1615418355.6,286046995.7,N
1615418375.5,286046992.6,N
1615418395.3,286046983.5,N
1615418415.2,286046983.7,N
1615418435.0,286046984.9,N
1615418435.9,286046984.9,N
1615418455.7,286046983.4,N
1615418475.6,286046977.4,Y
1615418495.4,286046987.2,P
1615418515.3,286046990.1,N
1615418535.1,286046995.5,N
1615418555.8,286046997.8,N
1615418575.7,286046995.6,N
1615418595.5,286046994.9,N
1615418615.4,286046993.8,N
1615418635.2,286046994.2,N
1615418655.0,286046995.9,N
1615418655.9,286046995.9,N
1615418675.8,286046996.3,N
1615418695.6,286047001.0,N
1615418715.5,286047002.6,N
1615418735.3,286047005.8,N
1615418755.1,286047009.1,N
1615418775.9,286047009.4,N
1615418795.7,286047009.1,N
1615418815.5,286047005.3,N
1615418835.4,286047005.5,N
1615418855.2,286047011.1,N
1615418875.0,286047011.6,N
1615418876.0,286047011.6,N
1615418895.8,286047007.8,N
1615418915.6,286047006.8,N
1615418935.5,286047012.3,N
1615418955.3,286047014.6,N
1615418975.1,286047015.4,N
1615418995.9,286047017.0,N
1615419015.7,286047012.6,N
1615419035.6,286047014.7,N
1615419055.4,286047020.4,N
1615419075.2,286047022.3,N
1615419095.1,286047027.5,Y
1615419096.0,286047027.5,P
1615419115.8,286047021.1,N
1615419135.7,286047021.5,N
1615419155.5,286047018.0,N
1615419205.4,286047006.2,E
1615419215.3,286047004.7,N
1615419235.1,286047005.9,P
1615419255.9,286047005.8,P
1615419275.7,286047008.4,Y
1615419295.5,286047007.5,P
1615419315.4,286047007.2,P
1615419335.2,286047006.8,P
1615419355.1,286047007.1,Y
1615419356.0,286047007.1,P
1615419375.8,286046998.3,P
1615419395.6,286046998.3,N
1615419415.5,286047002.6,N
1615419435.3,286046999.4,N
1615419455.2,286047003.6,N
1615419475.9,286047004.6,N
1615419495.7,286047008.4,N
1615419515.6,286047009.5,N
1615419535.4,286047011.9,Y
1615419555.2,286047005.6,P
1615419575.1,286047005.4,P
1615419576.0,286047005.4,P
1615419595.8,286047002.1,N
1615419615.7,286047002.8,N
1615419635.5,286047002.7,N
1615419655.3,286047001.8,N
1615419675.2,286047007.6,Y
1615419695.0,286047000.2,P
1615419695.9,286047000.2,N
1615419715.8,286046999.0,N
1615419735.6,286047001.8,N
1615419755.4,286047005.5,Y
1615419775.3,286047011.5,P
1615419795.1,286047011.3,N
1615419815.8,286047012.6,N
1615419835.7,286047014.3,Y
1615419855.5,286047003.7,P
1615419875.4,286047000.0,N
1615419895.2,286046993.6,N
1615419915.0,286046995.7,N
1615419915.9,286046995.7,N
1615419935.8,286046995.4,N
1615419955.6,286046995.6,N
1615419975.4,286046994.9,N
1615419995.3,286046994.4,N
1615420015.1,286046989.3,N
1615420035.9,286046992.5,N
1615420055.7,286047006.6,N
1615420075.5,286047015.7,N
1615420095.4,286047025.9,Y
1615420115.2,286047041.0,P
1615420135.0,286047051.9,N
1615420136.0,286047051.9,N
1615420155.8,286047060.3,N
1615420175.6,286047067.2,Y
1615420195.5,286047033.4,P
1615420215.3,286047042.7,P
1615420235.1,286047044.0,P
1615420255.9,286047046.0,Y
1615420275.7,286047006.4,P
1615420295.6,286047008.5,N
1615420315.4,286047009.1,N
1615420335.2,286047014.0,N
1615420355.1,286047016.0,N
1615420356.0,286047016.0,N
1615420375.8,286047023.2,N
1615420395.6,286047027.3,N
1615420415.5,286047034.5,Y
1615420435.3,286047021.3,P
1615420455.2,286047026.6,P
1615420475.9,286047031.3,P
1615420495.7,286047028.8,Y
1615420515.6,286047006.8,P
1615420535.4,286047008.5,N
1615420555.3,286047011.3,N
1615420575.1,286047015.1,N
1615420576.0,286047015.1,N
1615420595.8,286047015.8,N
1615420615.7,286047017.1,Y
1615420635.5,286047002.1,P
1615420655.3,286047000.3,N
1615420675.2,286047002.6,N
1615420695.0,286047003.0,N
1615420695.9,286047003.0,N
1615420715.8,286047012.3,N
1615420735.6,286047010.9,N
1615420755.4,286047018.0,Y
1615420775.3,286047015.9,P
1615420795.1,286047021.2,P
